Location: Unspecified
(0.0000°N, 0.0000°E)
Time: 15:29:17
(UTC+01:00)

Envisat - Pass Details

Date: 31 October 2021
Orbit: 764 x 766 km, 98.2° (Epoch: 29 November)

Event Time Altitude Azimuth Distance (km) Brightness Sun altitude
Rises 04:32:01 0° 50° (NE) 3,215 6.6 -31.8°
Reaches altitude 10° 04:35:51 10° 80° (E) 2,293 6.2 -30.9°
Maximum altitude 04:37:46 12° 103° (ESE) 2,149 6.2 -30.4°
Drops below altitude 10° 04:39:42 10° 125° (SE) 2,297 6.3 -29.9°
Sets 04:43:31 0° 155° (SSE) 3,226 6.8 -29.0°
